Location: Castres
(47.6679°N, 1.8337°W)
Time: 23:34:46
(UTC+00:00)

Daily predictions for brighter satellites

Satellite Brightness Start Highest point End
(mag) Time Altitude Azimuth Time Altitude Azimuth Time Altitude Azimuth
STARLINK-1090 4.2 20:20:14 10° WNW 20:24:19 55° NNE 20:28:25 10° E
Cosmos 44 Rocket 3.6 20:21:45 10° NW 20:26:35 68° WSW 20:31:30 10° SSE
STARLINK-1166 3.9 20:22:59 10° WNW 20:27:04 59° SW 20:31:08 10° SE
STARLINK-67 3.8 20:26:49 10° W 20:28:37 30° NNW 20:30:26 10° NE
SL-8 R/B 3.7 20:23:58 10° WSW 20:28:43 65° SSE 20:33:30 10° ENE
STARLINK-1089 4.1 20:25:13 10° WNW 20:29:19 57° NNE 20:33:24 10° E
Cosmos 2278 Rocket 3.4 20:26:59 10° SSE 20:31:14 22° E 20:35:30 10° NE
Cosmos 1536 4.4 20:28:12 10° NNW 20:31:58 37° W 20:35:43 10° SSW
STARLINK-1165 4.0 20:27:59 10° WNW 20:32:03 54° SW 20:36:05 10° SE
Cosmos 1666 4.5 20:29:53 10° NNW 20:33:23 33° W 20:36:51 10° SSW
Cosmos 1356 3.8 20:30:15 10° N 20:33:37 48° ENE 20:36:58 10° SSE
STARLINK-1107 4.1 20:30:12 10° WNW 20:34:18 60° NNE 20:38:24 10° E
Meteor 1-18 Rocket 4.4 20:31:12 10° S 20:36:36 55° E 20:42:07 10° NNE
STARLINK-1169 4.1 20:32:59 10° WNW 20:37:00 50° SW 20:41:01 10° SE
STARLINK-1232 4.5 20:34:08 10° SSW 20:37:42 29° SE 20:41:18 10° ENE
Lacrosse 5 3.1 20:33:31 10° NW 20:38:13 37° NNE 20:42:54 10° E
NOSS 2-3 (E) 4.2 20:35:21 10° S 20:39:17 37° ESE 20:43:49 10° NE
STARLINK-1066 4.0 20:35:11 10° WNW 20:39:19 62° NNE 20:43:25 10° ESE
ASTEX 1 4.1 20:36:21 10° S 20:41:09 56° W 20:46:00 10° NNW
Cosmos 1844 Rocket 3.0 20:35:43 10° SSW 20:41:22 77° WNW 20:47:05 10° NNE
STARLINK-1178 4.2 20:37:58 10° WNW 20:41:57 47° SW 20:45:54 10° SE
STARLINK-1208 4.3 20:38:58 10° SSW 20:42:38 31° SE 20:46:19 10° ENE
Terra 3.6 20:39:20 10° ESE 20:42:42 20° ENE 20:46:04 10° NNE
STARLINK-1228 2.9 20:39:55 10° SW 20:43:15 74° SSE 20:46:36 10° ENE
STARLINK-1081 3.9 20:40:10 10° WNW 20:44:18 66° NNE 20:48:25 10° ESE
STARLINK-1234 2.7 20:43:46 10° SW 20:46:53 74° SSE 20:50:00 10° ENE
STARLINK-1120 4.3 20:42:59 10° WNW 20:46:55 43° SW 20:50:42 11° SSE
STARLINK-1271 4.2 20:43:52 10° SSW 20:47:36 33° SE 20:51:21 10° ENE
IGS 5A 4.0 20:44:15 10° SE 20:48:13 45° ENE 20:52:12 10° N
STARLINK-1212 2.9 20:45:12 10° SW 20:48:14 57° SSE 20:51:19 10° ENE
STARLINK-1209 2.8 20:45:30 10° WSW 20:48:38 80° SSE 20:51:47 10° ENE
STARLINK-1105 2.9 20:45:40 10° SW 20:48:42 57° SSE 20:51:46 10° ENE
STARLINK-1070 3.8 20:45:08 10° WNW 20:49:17 69° NNE 20:53:24 10° ESE
STARLINK-1247 2.9 20:46:34 10° SW 20:49:38 58° SSE 20:52:42 10° ENE
Cosmos 2084 Rocket 3.5 20:45:31 10° SW 20:49:48 88° NW 20:54:11 10° NE
STARLINK-1227 2.8 20:47:01 10° SW 20:50:05 59° SSE 20:53:09 10° ENE
Cosmos 1515 3.9 20:47:11 10° S 20:50:54 53° E 20:54:38 10° NNE
STARLINK-1226 2.8 20:47:53 10° SW 20:50:56 60° SSE 20:54:01 10° ENE
Crew Dragon 2.0 20:49:15 10° WNW 20:51:04 25° N 20:53:01 10° ENE
Okean 3 4.4 20:48:03 10° SSE 20:51:49 30° E 20:55:37 10° NNE
STARLINK-1131 4.4 20:47:58 10° WNW 20:51:51 40° SW 20:55:28 12° SSE
STARLINK-1215 2.8 20:48:48 10° SW 20:51:52 61° SSE 20:54:58 10° ENE
Cosmos 407 Rocket 3.6 20:47:01 10° NNW 20:52:23 89° NE 20:57:44 10° SSE
STARLINK-1154 4.1 20:48:45 10° SSW 20:52:33 36° SE 20:56:22 10° ENE
STARLINK-1217 2.8 20:50:34 10° SW 20:53:39 63° SSE 20:56:44 10° ENE
STARLINK-1069 3.8 20:50:06 10° WNW 20:54:15 73° NNE 20:58:21 10° ESE
USA 245 3.1 20:50:56 11° SSE 20:54:32 55° ENE 20:57:30 10° N
STARLINK-1229 2.8 20:51:29 10° SW 20:54:34 64° SSE 20:57:40 10° ENE
STARLINK-1270 2.8 20:52:20 10° SW 20:55:25 65° SSE 20:58:32 10° ENE
Cosmos 724 4.3 20:49:51 10° NW 20:55:46 90° NE 21:01:20 12° SE
STARLINK-1189 2.8 20:54:10 10° SW 20:57:15 68° SSE 21:00:22 10° ENE
STARLINK-1197 4.0 20:53:38 10° SSW 20:57:30 39° SE 21:01:23 10° ENE
STARLINK-1188 2.8 20:55:03 10° SW 20:58:08 69° SSE 21:01:15 10° ENE
Cosmos 2221 Rocket 4.4 20:54:39 10° SSE 20:58:41 35° E 21:02:49 10° NNE
STARLINK-1235 2.8 20:55:43 10° WSW 20:58:49 86° SSE 21:01:55 10° ENE
Okean 1-7 3.0 20:54:41 10° S 20:59:00 88° WNW 21:03:17 10° N
NOSS 2-3 (D) 3.8 20:55:01 10° SSW 20:59:07 51° ESE 21:03:56 10° NE
STARLINK-1187 2.7 20:56:09 10° WSW 20:59:14 78° SSE 21:02:20 10° ENE
STARLINK-1085 3.7 20:55:06 10° WNW 20:59:16 77° NNE 21:03:10 11° ESE
STARLINK-1191 2.7 20:57:31 10° SW 21:00:36 72° SSE 21:03:42 10° ENE
COSMOS 2406 3.3 20:55:01 10° NNW 21:00:50 74° ENE 21:05:59 13° SE
STARLINK-1221 2.7 20:58:24 10° SW 21:01:29 73° SSE 21:04:34 10° ENE
STARLINK-1222 2.7 20:59:17 10° SW 21:02:22 74° SSE 21:05:28 10° ENE
STARLINK-1198 3.9 20:58:31 10° SSW 21:02:25 42° SE 21:06:21 10° ENE
STARLINK-1214 2.7 21:00:12 10° SW 21:03:17 75° SSE 21:06:23 10° ENE
STARLINK-1086 3.7 21:00:05 10° WNW 21:04:15 81° NNE 21:07:56 13° ESE
Meteor 2-4 Rocket 3.9 20:59:43 10° SSE 21:04:53 49° E 21:10:03 10° NNE
Cosmos 1844 4.2 20:59:20 10° SW 21:04:56 65° WNW 21:10:40 10° NNE
Resurs 01 Rocket 2.5 21:00:44 10° S 21:05:02 47° W 21:09:22 10° NNW
Abrixas rocket 1.8 21:02:32 10° WSW 21:05:29 75° SSE 21:08:26 10° E
CREW DRAGON DEMO-1 DEB 3.6 21:04:05 10° WNW 21:07:02 40° SSW 21:09:01 17° SSE
SPOT 1/Viking Rocket 3.7 21:02:31 12° SSE 21:07:15 65° ENE 21:12:23 10° N
USA 215 4.1 21:01:04 10° E 21:07:17 48° NNE 21:13:31 10° NW
STARLINK-1199 3.9 21:03:28 10° SW 21:07:25 46° SE 21:11:24 10° ENE
STARLINK-1095 3.6 21:05:03 10° WNW 21:09:13 86° NNE 21:12:43 14° ESE
USA 229 DEB 3.8 21:03:15 10° SW 21:09:48 80° NW 21:16:46 10° NE
Sich 1 Rocket 3.6 21:05:13 10° N 21:09:49 80° E 21:14:01 12° SSE
USA 229 3.8 21:03:23 10° SW 21:09:55 80° NW 21:16:52 10° NE
Meteor 1-4 Rocket 2.3 21:07:27 10° S 21:10:52 70° E 21:14:20 10° NNE
STARLINK-1210 3.8 21:08:22 10° SW 21:12:21 49° SE 21:16:23 10° ENE
STARLINK-1077 3.6 21:10:02 10° WNW 21:14:11 90° SW 21:17:29 16° ESE
Cosmos 1190 Rocket 4.2 21:09:08 10° NNW 21:14:20 72° WSW 21:19:03 13° SSE
SPOT 5 3.4 21:12:28 15° SE 21:16:31 51° ENE 21:21:39 10° N
STARLINK-1219 3.7 21:13:18 10° SW 21:17:19 53° SE 21:21:23 10° ENE
Cosmos 1624 Rocket 4.0 21:12:11 10° SSW 21:17:29 83° ESE 21:22:52 10° NNE
NOSS 3-1 (C) 3.8 21:12:22 10° SW 21:17:54 66° NW 21:24:25 10° NE
OPS 8737 4.2 21:14:33 10° SW 21:18:13 88° NW 21:21:12 10° NE
Cosmos 1782 Rocket 4.2 21:13:57 10° NNW 21:18:21 56° W 21:22:44 10° S
NOSS 3-1 (A) 3.3 21:13:20 10° SW 21:18:52 87° SE 21:25:22 10° NE
STARLINK-1075 3.6 21:15:01 10° WNW 21:19:10 85° SSW 21:22:16 17° ESE
ATLAS CENTAUR R/B 3.6 21:18:08 10° WNW 21:19:48 17° NNW 21:21:10 10° NNE
STARLINK-1211 3.6 21:18:13 10° SW 21:22:16 57° SE 21:26:21 10° ENE
Cosmos 2279 Rocket 4.1 21:17:18 10° N 21:23:32 66° E 21:28:34 16° SSE
STARLINK-1093 3.6 21:20:00 10° WNW 21:24:09 80° SSW 21:27:04 19° SE
Aureole 1 Rocket 3.6 21:20:20 10° NNW 21:24:16 57° WSW 21:28:42 13° S
STARLINK-1087 4.4 21:24:35 10° WSW 21:25:26 12° SW 21:25:37 12° SW
STARLINK-1071 4.5 21:22:14 10° WNW 21:26:16 48° NNE 21:30:17 10° E
Cosmos 1140 Rocket 3.8 21:21:10 10° NNW 21:26:18 64° WSW 21:30:42 14° S
Okean 2 Rocket 3.1 21:22:31 10° N 21:26:59 75° E 21:30:13 18° SSE
STARLINK-1245 3.6 21:23:10 10° SW 21:27:15 62° SSE 21:31:22 10° ENE
STARLINK-1074 3.6 21:24:58 10° WNW 21:29:08 75° SSW 21:31:51 21° SE
NOSS 2-3 (C) 3.7 21:25:32 10° SW 21:29:51 87° NW 21:35:02 10° NE
STARLINK-1110 4.4 21:26:26 10° WNW 21:30:29 49° NNE 21:34:32 10° E
BREEZE-M DEB (TANK) 4.4 21:11:14 10° WNW 21:30:48 85° NNE 21:35:39 12° ESE
Cosmos 1544 4.1 21:27:19 10° NNW 21:30:48 42° W 21:34:05 11° SSW
Cosmos 1371 Rocket 4.3 21:26:11 10° SSW 21:31:26 69° WNW 21:36:39 10° NNE
CZ-4B DEB 4.3 21:29:42 20° S 21:31:52 83° WSW 21:35:14 10° NNW
STARLINK-1233 3.5 21:28:07 10° SW 21:32:13 66° SSE 21:36:20 10° ENE
SAR-Lupe-2 3.9 21:28:50 10° N 21:32:25 67° WNW 21:35:59 10° SSW
ERBS 3.1 21:32:41 24° SSE 21:33:38 28° SE 21:36:32 10° ENE
Landsat 7 4.2 21:31:14 13° S 21:35:24 61° W 21:40:09 10° NNW
STARLINK-1124 4.3 21:32:12 10° WNW 21:36:17 52° NNE 21:40:13 11° E
STARLINK-1204 3.5 21:33:05 10° SW 21:37:12 71° SSE 21:41:20 10° ENE
Cosmos 1634 Rocket 4.4 21:31:57 10° NNW 21:38:11 65° W 21:44:20 10° S
STARLINK-1088 3.7 21:34:57 10° WNW 21:39:04 65° SSW 21:41:24 24° SE
Cosmos 2151 Rocket 3.6 21:35:28 10° N 21:40:00 72° ENE 21:42:53 22° SSE
Cosmos 2082 Rocket 2.5 21:34:42 10° NNW 21:40:24 62° ENE 21:44:18 20° SE
STARLINK-1122 4.3 21:37:11 10° WNW 21:41:16 54° NNE 21:45:01 12° E
Cosmos 1954 Rocket 4.1 21:36:17 10° NNW 21:41:32 72° WSW 21:45:18 19° S
STARLINK-1238 3.5 21:38:00 10° SW 21:42:08 76° SSE 21:46:17 10° ENE
STARLINK-1115 3.7 21:39:55 10° WNW 21:44:01 60° SW 21:46:10 26° SE
ERS-1 Rocket 3.0 21:40:28 19° SSE 21:44:11 83° WSW 21:49:16 10° NNW
Cosmos 1975 4.4 21:40:38 10° NNW 21:44:15 31° W 21:47:50 10° SSW
Okean 1 Rocket 3.9 21:40:23 10° N 21:44:36 38° ENE 21:46:51 23° SE
Intercosmos 24 3.7 21:41:12 10° NNW 21:45:03 76° W 21:47:11 22° S
STARLINK-1126 4.2 21:42:07 10° WNW 21:46:13 56° NNE 21:49:43 14° E
SeaSat 1 3.4 21:42:26 10° NE 21:46:39 28° ESE 21:48:18 23° SE
STARLINK-1201 3.5 21:43:00 10° WSW 21:47:08 82° SSE 21:51:18 10° ENE
STARLINK-1076 3.8 21:44:55 10° WNW 21:49:00 56° SW 21:50:58 28° SSE
Cosmos 1833 Rocket 2.7 21:43:30 10° NNW 21:49:08 77° WSW 21:52:51 22° SSE
Aureole 2 Rocket 4.4 21:51:13 14° E 21:51:13 14° E 21:52:21 10° ENE
STARLINK-1082 4.1 21:47:10 10° WNW 21:51:16 59° NNE 21:54:34 15° E
SL-4 R/B 1.6 21:48:17 10° NNW 21:51:28 57° NE 21:52:33 34° ESE
STARLINK-1206 3.5 21:47:58 10° WSW 21:52:06 86° SSE 21:56:17 10° ENE
GENESIS II 4.5 21:48:41 10° NW 21:52:39 60° WSW 21:54:33 28° SSE
STARLINK-1092 3.9 21:49:54 10° WNW 21:53:56 52° SW 21:55:44 29° SSE
Cosmos 676 Rocket 4.5 21:49:07 10° NNW 21:54:14 55° WSW 21:57:51 19° S
STARLINK-1216 4.5 21:54:48 28° SE 21:54:48 28° SE 21:58:14 10° ENE
Cosmos 332 Rocket 4.1 21:52:44 23° SSE 21:55:30 47° ESE 22:00:12 10° NNE
STARLINK-1100 4.0 21:52:08 10° WNW 21:56:16 61° NNE 21:59:21 17° E
STARLINK-1205 3.6 21:52:56 10° WSW 21:57:05 89° NNW 22:01:15 10° ENE
STARLINK-1080 4.0 21:54:56 10° WNW 21:58:55 48° SW 22:00:32 30° SSE
ISS -3.4 21:56:06 10° WNW 21:59:28 65° NNE 22:01:21 24° E
STARLINK-1237 4.3 21:59:35 30° SE 21:59:38 30° SE 22:03:16 10° ENE
Cosmos 2056 Rocket 4.5 21:55:16 10° SW 22:00:10 47° WNW 22:05:08 10° NNE
STARLINK-1083 3.9 21:57:07 10° WNW 22:01:15 64° NNE 22:04:07 19° E
Cosmos 1066 Rocket 4.4 21:58:19 24° SSE 22:01:22 51° E 22:06:34 10° NNE
STARLINK-1218 3.6 21:57:54 10° WSW 22:02:03 84° NNW 22:06:13 10° ENE
Cosmos 1378 4.2 22:02:30 26° ESE 22:03:11 28° E 22:06:22 10° NNE
STARLINK-1090 4.1 21:59:55 10° WNW 22:03:53 44° SW 22:05:19 31° SSE
STARLINK-1202 4.2 22:04:21 32° SE 22:04:35 33° SE 22:08:19 10° ENE
STARLINK-1125 3.9 22:02:05 10° WNW 22:06:14 68° NNE 22:08:54 21° ESE
STARLINK-1254 3.7 22:02:54 10° WSW 22:07:03 80° NNW 22:11:13 10° ENE
CARTOSAT-1 4.2 22:05:21 21° SSW 22:08:01 49° W 22:12:14 10° NNW
Cosmos 1943 Rocket 3.7 22:07:36 17° ESE 22:08:26 17° E 22:11:55 10° ENE
STARLINK-1089 4.2 22:04:56 10° WNW 22:08:50 41° SW 22:10:06 32° S
STARLINK-1109 3.8 22:07:03 10° WNW 22:11:12 71° NNE 22:13:40 23° ESE
SL-8 R/B 3.8 22:06:26 10° W 22:11:16 81° N 22:16:07 10° E
STARLINK-1231 3.8 22:07:55 10° WSW 22:12:03 75° NNW 22:16:13 10° ENE
STARLINK-1107 4.3 22:09:56 10° WNW 22:13:47 38° SW 22:14:52 32° S
Cosmos 1437 Rocket 2.6 22:12:22 29° SSW 22:14:12 85° WNW 22:18:01 10° N
STARLINK-1246 4.0 22:13:54 36° SSE 22:14:28 38° SE 22:18:20 10° ENE
Cosmos 2278 Rocket 2.6 22:09:11 10° SW 22:14:48 65° WNW 22:20:29 10° NNE
STARLINK-1091 3.7 22:12:02 10° WNW 22:16:12 75° NNE 22:18:27 26° ESE
STARLINK-1232 3.8 22:12:54 10° WSW 22:17:02 71° NNW 22:21:11 10° ENE
STARLINK-1066 4.4 22:14:57 10° WNW 22:18:45 35° SW 22:19:40 31° SSW
STARLINK-1224 3.9 22:18:40 37° S 22:19:25 41° SE 22:23:20 10° ENE
Terra 2.1 22:17:24 26° S 22:20:00 61° WSW 22:24:44 10° NNW
STARLINK-1072 3.6 22:17:01 10° WNW 22:21:11 80° NNE 22:23:15 29° ESE
ALOS 2 4.5 22:19:22 15° E 22:21:28 20° ENE 22:24:40 10° NNE
Lacrosse 5 1.8 22:16:31 10° NW 22:21:35 79° SW 22:24:01 31° SE
STARLINK-1208 3.9 22:17:53 10° WSW 22:22:00 68° NNW 22:26:09 10° ENE
STARLINK-1212 4.5 22:21:15 10° W 22:24:11 37° NNW 22:27:06 10° NE
STARLINK-1225 3.8 22:23:26 37° S 22:24:24 44° SE 22:28:21 10° ENE
STARLINK-1105 4.5 22:21:44 10° W 22:24:39 36° NNW 22:27:34 10° NE
Crew Dragon 1.3 22:22:48 10° WNW 22:24:20 39° NW 22:24:20 39° NW
STARLINK-1247 4.5 22:22:38 10° W 22:25:34 36° NNW 22:28:30 10° NE
Thor Agena Rocket 4.0 22:20:57 10° NNE 22:26:03 46° E 22:28:05 31° SSE
STARLINK-1096 3.6 22:22:01 10° WNW 22:26:12 84° NNE 22:28:03 32° ESE
STARLINK-1271 4.0 22:22:54 10° WSW 22:27:01 64° NNW 22:31:09 10° ENE
STARLINK-1230 3.8 22:28:13 37° S 22:29:20 48° SE 22:33:21 10° ENE
BREEZE-M DEB (TANK) 3.8 22:13:27 10° WSW 22:29:51 69° SSE 22:33:58 10° ENE
NOSS 8 (F) 4.2 22:31:10 59° ESE 22:31:10 59° ESE 22:34:01 10° NE
Cosmos 1452 Rocket 3.8 22:26:11 12° SSW 22:31:02 68° WNW 22:36:20 10° NNE
STARLINK-1079 3.5 22:26:59 10° WNW 22:31:09 89° NNE 22:32:48 36° ESE
SL-4 R/B 3.5 22:31:54 12° NE 22:31:54 12° NE 22:32:28 10° NE
STARLINK-1154 4.1 22:27:54 10° WSW 22:32:01 61° NNW 22:36:08 10° ENE
EXPRESS MD2 4.1 22:30:08 22° SSW 22:32:36 52° SE 22:40:06 10° ENE
MTI 4.4 22:31:04 10° N 22:34:08 50° WNW 22:35:11 33° SW
STARLINK-1243 3.7 22:32:58 36° SSW 22:34:18 52° SE 22:38:20 10° ENE
STARLINK-1116 3.5 22:31:58 10° WNW 22:36:08 86° SSW 22:37:35 39° ESE
STARLINK-1197 4.2 22:32:54 10° W 22:37:00 59° NNW 22:41:06 10° ENE
Cosmos 1766 3.3 22:33:29 10° N 22:37:27 68° E 22:38:27 46° SE
STARLINK-1236 3.6 22:37:45 34° SSW 22:39:16 56° SE 22:43:20 10° ENE
Abrixas rocket 2.0 22:38:05 10° W 22:41:02 75° N 22:41:15 70° NE
STARLINK-1198 4.3 22:37:53 10° W 22:41:58 56° NNW 22:46:04 10° ENE
Cosmos 371 Rocket 4.0 22:38:37 11° SW 22:43:04 51° WNW 22:47:51 10° NNE
Cosmos 1461 3.1 22:43:04 46° SSE 22:43:39 51° ESE 22:47:52 10° NE
Cosmos 1674 Rocket 4.5 22:41:54 20° SW 22:44:37 44° WNW 22:48:51 10° N
STARLINK-1094 3.5 22:41:57 10° WNW 22:46:06 76° SSW 22:47:10 48° SE
STARLINK-1199 4.4 22:42:56 10° W 22:47:00 54° NNW 22:51:05 10° ENE
Meteor 1-23 Rocket 4.5 22:43:15 21° SSW 22:47:07 67° WNW 22:52:47 10° N
deb Kosmos-1763 3.9 22:44:21 10° NNW 22:47:58 80° WSW 22:48:29 62° S
STARLINK-1102 4.5 22:44:12 10° WNW 22:48:15 49° NNE 22:51:45 13° E
Cosmos 2026 Rocket 4.1 22:45:53 32° SSE 22:48:46 61° E 22:55:00 10° NNE
STARLINK-1269 3.5 22:47:17 30° SW 22:49:11 65° SSE 22:53:18 10° ENE
USA 215 3.2 22:45:48 24° SE 22:50:03 84° SW 22:56:38 10° NW
Aureole 3 Rocket 4.4 22:45:46 10° N 22:50:49 49° ENE 22:54:05 28° SE
STARLINK-1117 3.5 22:46:55 10° WNW 22:51:04 71° SSW 22:51:56 52° SSE
STARLINK-1210 4.5 22:47:55 10° W 22:51:59 52° NNW 22:56:03 10° ENE
Cosmos 1378 Rocket 4.3 22:49:36 24° SW 22:52:01 48° WNW 22:56:19 10° N
STARLINK-1111 4.4 22:49:11 10° WNW 22:53:14 51° NNE 22:56:31 15° E
STARLINK-1200 3.5 22:52:04 27° SW 22:54:10 70° SSE 22:58:18 10° ENE
STARLINK-1078 3.5 22:51:54 10° WNW 22:56:02 67° SSW 22:56:42 55° SSE
NOSS 2-2 (D) 3.8 22:57:13 39° E 22:57:13 39° E 23:00:26 10° NE
Cosmos 1733 3.1 22:52:56 10° N 22:56:47 87° ENE 22:57:26 60° SSE
STARLINK-1073 4.3 22:54:10 10° WNW 22:58:15 53° NNE 23:01:19 17° E
STARLINK-1192 3.4 22:56:50 25° SW 22:59:09 74° SSE 23:03:18 10° ENE
STARLINK-1108 3.6 22:56:53 10° WNW 23:01:00 62° SSW 23:01:30 56° S
Meteor 1-22 Rocket 4.3 22:55:11 10° NNW 23:01:14 84° W 23:03:47 36° S
Cosmos 1975 Rocket 3.0 23:00:54 48° S 23:02:07 78° E 23:06:34 10° NNE
Nadezhda 4 Rocket 4.5 22:58:09 19° SSW 23:02:29 54° WNW 23:08:31 10° N
STARLINK-1121 4.2 22:59:08 10° WNW 23:03:13 55° NNE 23:06:04 19° E
STARLINK-1244 3.4 23:01:36 23° SW 23:04:06 79° SSE 23:08:16 10° ENE
STARLINK-1071 3.6 23:01:53 10° WNW 23:05:58 57° SW 23:06:17 55° SSW
STARLINK-1106 4.1 23:04:07 10° WNW 23:08:14 58° NNE 23:10:51 21° E
STARLINK-1138 3.5 23:06:23 21° WSW 23:09:05 84° SSE 23:13:15 10° ENE
ERBS 3.5 23:06:40 10° WSW 23:09:50 41° NNW 23:13:01 10° NE
STARLINK-1110 3.7 23:06:06 10° WNW 23:10:08 54° SW 23:10:18 53° SSW
Cosmos 2297 3.8 23:07:18 24° SW 23:10:53 77° WNW 23:16:38 10° NNE
STARLINK-1203 3.5 23:08:11 16° WSW 23:11:30 88° SSE 23:15:43 10° ENE
Cosmos 1242 Rocket 3.1 23:11:36 43° E 23:11:36 43° E 23:15:04 10° NNE
STARLINK-1112 4.1 23:09:07 10° WNW 23:13:14 60° NNE 23:15:39 23° E
STARLINK-1143 3.5 23:11:10 19° WSW 23:14:04 89° SE 23:18:14 10° ENE
ATLAS 3B R/B 4.2 23:08:55 10° NNW 23:14:55 32° NNE 23:21:03 10° E
NOSS 2-2 (E) 3.0 23:15:11 68° SSW 23:15:36 81° SE 23:19:42 10° NE
STARLINK-1124 3.9 23:11:53 10° WNW 23:15:51 49° SW 23:15:51 49° SW
STARLINK-1128 4.0 23:14:06 10° WNW 23:18:14 63° NNE 23:20:26 26° E
STARLINK-1241 3.5 23:15:54 17° WSW 23:19:02 86° NNW 23:23:12 10° ENE
CENTAUR R/B 3.6 23:11:30 10° NW 23:19:14 57° NE 23:27:41 10° ESE
Cosmos 1470 2.8 23:16:16 10° N 23:20:09 63° ENE 23:20:37 57° ESE
STARLINK-1122 4.0 23:16:52 10° WNW 23:20:37 45° SW 23:20:37 45° SW
STARLINK-1113 3.9 23:19:04 10° WNW 23:23:12 66° NNE 23:25:12 29° E
Aureole 2 Rocket 3.6 23:23:16 30° W 23:23:55 33° WNW 23:26:46 10° N
STARLINK-1239 3.6 23:20:39 15° WSW 23:24:01 81° NNW 23:28:11 10° ENE
Cosmos 2082 Rocket 3.7 23:19:34 10° NW 23:24:01 24° WSW 23:26:09 19° SW
SeaSat 1 3.2 23:19:35 10° NNE 23:24:21 50° NW 23:28:04 16° SW
STARLINK-1126 4.2 23:21:49 10° WNW 23:25:21 41° SW 23:25:21 41° SW
Cosmos 1110 Rocket 4.5 23:23:40 24° SW 23:26:39 57° WNW 23:31:46 10° NNE
EO 1 Del DPAF 4.1 23:23:56 10° N 23:27:33 43° WNW 23:28:37 34° WSW
STARLINK-1119 3.8 23:24:03 10° WNW 23:28:12 70° NNE 23:29:59 32° E
BREEZE-M DEB 3.5 23:25:25 14° WSW 23:28:14 89° SSE 23:38:43 10° ENE
STARLINK-1240 3.7 23:25:26 14° WSW 23:29:01 77° NNW 23:33:10 10° ENE
BREEZE-M DEB (TANK) 3.0 23:26:26 10° WNW 23:30:02 74° N 23:34:24 10° E
STARLINK-1082 4.4 23:26:53 10° WNW 23:30:12 37° WSW 23:30:12 37° WSW
Okean 2 4.1 23:29:56 35° WSW 23:31:09 46° WNW 23:35:10 10° N
SWAS 4.4 23:28:37 10° NNW 23:32:57 82° ENE 23:33:49 56° SE
STARLINK-1114 3.7 23:29:03 10° WNW 23:33:12 74° NNE 23:34:46 36° ESE
STARLINK-1216 3.8 23:30:12 12° WSW 23:34:00 73° NNW 23:38:09 10° ENE
Helios 1A 3.3 23:33:57 45° ESE 23:34:52 57° ENE 23:38:58 10° N
Cosmos 1455 Rocket 3.4 23:31:07 10° NNW 23:35:23 54° W 23:36:14 45° SW
ISS -1.6 23:33:06 10° W 23:34:16 18° W 23:34:16 18° W
Cosmos 968 Rocket 3.7 23:30:57 10° NNW 23:36:06 63° ENE 23:38:01 37° SE
STARLINK-1130 (DARKSAT) 3.6 23:34:00 10° WNW 23:38:10 78° NNE 23:39:32 41° ESE
NOSS 2-2 (C) 3.2 23:37:49 59° WSW 23:38:25 77° NW 23:42:28 10° NE
ATLAS 2AS CENTAUR R/B 3.7 23:35:53 30° SSE 23:38:29 38° ESE 23:45:39 10° NE
STARLINK-1237 3.8 23:34:58 11° WSW 23:38:59 69° NNW 23:43:08 10° ENE
Cosmos 2369 Rocket 2.2 23:38:58 43° S 23:40:44 65° ESE 23:46:22 10° NNE
Cosmos 1842 4.0 23:40:42 38° WSW 23:41:31 44° WNW 23:45:18 10° N
Cosmos 1417 Rocket 4.5 23:36:38 10° N 23:42:57 85° W 23:45:32 39° S
STARLINK-1084 3.6 23:38:59 10° WNW 23:43:09 82° NNE 23:44:19 46° ESE
STARLINK-1202 3.9 23:39:52 10° WSW 23:44:00 66° NNW 23:48:07 10° ENE
Cosmos 1486 Rocket 3.9 23:39:49 10° NNW 23:45:11 88° WSW 23:46:50 46° SSE
Nimbus 7 Rocket 4.5 23:39:16 10° NNE 23:45:23 82° WNW 23:48:08 35° SSW
NOSS 3-2 (A) 4.0 23:38:00 10° NW 23:45:30 80° SW 23:50:12 29° SSE
Meteor 1-21 4.3 23:43:32 38° SSW 23:45:48 75° WNW 23:51:28 10° N
Cosmos 1025 Rocket 2.9 23:45:35 62° SSE 23:46:13 77° E 23:50:31 10° NNE
STARLINK-1098 3.5 23:43:59 10° WNW 23:48:09 87° NNE 23:49:07 52° ESE
Cosmos 1943 Rocket 2.2 23:49:04 36° SW 23:51:27 80° WNW 23:57:05 10° NNE
Helios 1B rocket 3.8 23:49:01 10° NE 23:52:31 26° E 23:52:51 26° ESE
STARLINK-1123 3.5 23:48:57 10° WNW 23:53:07 88° SSW 23:53:53 58° ESE
SL-8 R/B 3.5 23:49:04 10° WNW 23:53:53 74° SSW 23:55:49 36° ESE
STARLINK-1246 4.1 23:49:51 10° W 23:53:57 60° NNW 23:58:04 10° ENE
Cosmos 1302 Rocket 4.2 23:52:25 35° SW 23:54:38 68° WNW 23:59:56 10° NNE
